Temp
16 16 16 16 17 17 17 17 16 16 17 18 18 18 18 18 18 17 18 18 17 17 18 18 17 18 18 18 18 18 18 18 18 18 17 18 18 17 17 17 17 17
15 16 16 16 16 17 17 17 17 16 16 17 18 18 18 18 18 18 18 18 17 17 17 18 18 18 18 18 18 18 18 18 18 17 17 18 18 17 17 17 17 17
15 15 15 16 16 17 17 17 16 16 16 17 17 18 18 18 18 18 18 18 17 17 17 18 18 18 18 18 18 18 18 18 18 17 17 17 17 17 17 17 17 17
15 15 15 16 16 17 17 17 16 15 16 16 16 16 17 18 18 18 18 18 18 18 18 18 18 18 18 18 18 18 18 18 18 17 17 17 17 17 17 17 17 17
15 15 15 16 16 16 16 16 15 15 16 16 15 15 15 16 18 18 18 18 18 18 18 18 18 18 18 18 18 18 18 17 17 17 17 17 17 17 17 17 17 17
15 15 15 16 15 15 15 15 15 16 16 16 17 17 16 15 16 17 18 18 18 18 18 18 18 18 18 18 18 18 17 17 17 17 17 17 17 17 17 17 17 17
15 14 15 15 14 15 16 16 16 16 16 16 17 18 17 16 15 16 17 18 18 18 18 18 18 18 18 18 18 17 17 17 17 17 17 17 17 17 17 17 17 17
15 14 15 15 15 15 16 16 16 16 16 16 16 17 17 17 15 14 16 18 18 18 18 18 18 18 18 18 17 17 17 17 17 17 17 17 17 17 17 17 17 17
15 15 15 15 15 16 15 15 16 16 16 16 16 17 17 17 15 14 15 18 18 18 18 17 17 18 17 18 17 17 17 17 17 17 17 17 17 17 17 16 16 16
15 15 15 15 15 15 15 15 15 16 16 16 16 16 16 17 16 14 15 18 18 18 18 17 17 17 17 18 17 17 17 17 17 17 17 17 17 17 17 16 16 16
14 15 15 15 15 16 15 15 15 16 16 16 16 16 16 17 16 15 16 18 18 18 18 17 18 18 17 18 17 17 17 17 17 17 17 17 17 17 17 17 17 17
14 14 15 15 15 16 15 15 15 16 16 16 16 16 16 17 17 15 16 18 18 18 18 17 18 18 18 18 17 17 17 17 17 17 17 17 17 17 17 17 17 17
13 13 14 14 15 15 15 15 15 15 16 16 16 17 16 17 16 15 16 18 18 17 18 17 18 18 18 18 17 17 17 17 17 17 17 17 17 17 17 17 17 17
12 13 13 14 14 14 14 15 14 15 16 16 16 17 17 17 16 15 16 18 17 17 18 17 18 18 18 18 17 17 17 17 17 17 17 17 17 17 17 17 18 17
11 12 13 14 14 14 14 14 14 14 15 15 15 15 16 17 16 15 16 17 17 17 17 17 18 18 18 18 17 17 17 17 18 18 18 18 18 18 18 17 17 17
10 12 13 13 14 14 14 14 13 14 14 14 14 14 15 16 16 15 17 17 17 17 17 17 18 18 18 18 18 18 18 18 18 18 18 18 18 18 18 17 17 17
10 11 12 13 14 14 14 14 14 14 14 14 14 14 15 16 16 16 17 17 17 17 17 17 17 18 18 18 18 18 18 18 18 18 18 18 18 18 18 17 17 17
9 10 12 13 13 13 13 14 14 14 14 14 14 14 15 16 16 16 16 16 17 17 17 17 17 18 18 18 18 18 18 18 18 18 18 18 18 18 17 17 17 16
9 9 11 12 13 13 13 13 13 14 14 13 13 14 14 15 16 16 16 16 16 17 17 17 17 17 17 18 18 18 18 18 18 18 18 18 17 17 17 16 16 15
9 9 9 11 12 13 13 13 13 13 13 13 13 13 14 15 15 15 15 15 16 17 17 17 17 17 17 17 18 18 18 18 18 18 17 17 16 16 16 15 15 15
9 9 8 10 11 12 12 12 12 12 12 12 12 12 12 13 14 14 14 15 15 16 16 16 16 16 17 17 17 17 18 18 18 18 17 16 15 15 15 14 14 14
8 9 8 8 10 10 10 10 11 11 11 10 10 10 11 12 13 13 14 14 14 15 15 15 15 16 16 17 17 17 17 17 17 17 16 15 14 14 14 13 14 14
7 8 8 7 8 9 8 8 9 9 9 9 9 9 9 10 12 12 13 13 13 14 14 14 14 15 15 16 16 17 17 17 16 16 15 14 13 13 13 13 13 13
6 8 8 7 7 7 7 6 7 7 8 8 8 7 7 9 10 11 11 12 12 13 13 14 13 13 14 15 15 16 17 16 16 15 13 13 12 12 12 12 12 12
5 6 8 8 7 6 6 6 5 6 6 7 7 7 7 8 9 10 10 10 11 11 12 12 12 12 13 14 14 15 16 16 15 14 13 12 11 11 12 12 12 12
5 5 7 8 8 7 6 6 5 5 6 6 6 6 6 7 7 8 8 8 9 10 10 11 11 11 11 12 13 14 14 14 14 13 12 11 11 11 11 11 12 12
Height
783 782 781 779 779 780 782 784 786 787 788 789 790 792 792 794 796 799 799 801 803 806 807 808 809 811 812 814 815 816 818 820 822 823 825 826 827 829 830 831 832 833
782 782 781 779 779 780 782 783 785 787 787 788 789 791 792 794 796 797 799 800 803 805 806 807 808 810 811 812 814 815 817 819 820 822 824 825 826 827 829 830 831 832
781 780 780 779 778 778 780 782 785 787 788 789 789 790 792 794 795 796 798 800 802 804 805 806 808 809 810 812 813 815 816 818 819 821 823 824 825 826 827 829 830 831
782 782 780 778 777 778 779 780 784 788 790 790 791 792 793 794 795 797 798 800 801 803 804 806 807 808 809 811 812 814 815 817 818 820 822 823 824 826 827 828 829 830
782 782 780 778 777 779 781 781 783 786 789 791 793 795 796 796 796 797 798 800 801 802 804 805 806 807 808 810 811 813 814 816 818 819 821 822 824 825 826 827 828 829
778 779 779 777 777 779 780 780 782 784 786 789 791 794 797 799 798 797 797 799 800 801 803 804 805 806 807 809 810 812 814 815 816 818 820 821 823 824 825 826 827 828
777 776 777 777 777 779 778 778 781 784 785 787 789 791 794 797 799 798 797 798 799 801 802 804 805 806 807 808 810 811 813 814 815 817 819 820 822 823 824 825 826 827
775 774 775 776 777 778 778 777 781 784 785 787 789 790 792 794 798 800 798 798 799 800 802 803 804 805 807 808 809 810 812 813 814 816 817 819 820 821 823 824 825 826
771 771 773 775 776 777 777 778 780 781 783 786 788 789 791 793 797 801 800 798 799 800 801 803 804 805 806 807 808 809 810 812 813 815 816 817 819 820 821 822 823 825
770 770 771 773 774 775 775 776 777 779 781 783 785 787 789 791 795 800 800 797 798 800 801 802 803 804 805 806 807 808 809 810 812 814 815 816 817 818 819 821 822 823
771 771 771 771 771 771 772 773 774 776 778 780 783 785 787 788 792 798 799 797 797 799 800 802 803 804 805 806 807 808 809 810 811 813 814 815 816 817 818 820 821 822
770 771 771 770 768 768 770 771 772 773 775 777 780 782 785 786 789 797 798 796 797 798 799 801 802 803 804 805 807 808 809 810 811 812 813 814 815 816 818 819 820 822
769 770 770 769 768 768 769 769 770 771 773 775 777 780 782 783 787 795 797 795 796 797 798 800 801 802 803 805 806 807 808 809 810 811 812 813 815 816 817 819 820 821
768 769 769 768 768 768 768 769 770 771 772 773 775 777 780 781 786 793 795 794 795 796 797 799 800 801 802 803 805 806 807 809 809 810 811 813 814 816 817 819 820 821
767 767 767 767 767 766 767 768 771 772 772 772 775 778 779 781 786 792 792 792 794 795 796 798 799 800 801 802 804 805 806 807 808 809 811 812 813 815 817 818 819 820
765 765 765 765 765 764 764 765 769 772 773 773 775 778 780 781 785 789 791 792 793 794 795 797 798 800 800 801 802 804 805 806 807 809 810 811 813 814 816 817 818 819
764 764 764 763 763 763 763 763 765 768 770 772 774 776 779 780 782 786 788 790 792 793 794 796 797 798 799 800 801 802 804 805 807 808 810 811 813 814 815 816 818 818
765 763 762 762 761 762 762 762 763 764 767 769 771 774 777 779 780 783 786 788 789 791 792 794 796 797 798 799 800 801 803 804 806 808 810 811 812 813 815 816 817 818
766 764 762 761 760 760 760 760 760 761 763 767 770 773 776 777 778 781 784 786 788 789 790 793 794 796 798 799 800 801 802 804 805 807 809 811 812 813 814 816 817 818
767 766 763 761 760 759 759 758 758 759 762 766 769 772 774 774 776 780 783 785 787 787 788 790 793 795 797 798 799 801 802 803 805 807 809 810 812 813 814 816 817 818
770 768 766 763 761 760 759 758 757 759 762 766 768 770 772 772 774 779 782 784 786 787 787 789 791 794 796 797 798 800 801 803 804 806 808 810 811 813 814 816 817 818
773 771 769 767 763 762 763 760 757 759 763 766 768 770 772 772 774 778 781 783 785 787 787 788 790 793 795 797 798 799 801 802 803 805 807 809 811 813 815 816 818 819
778 774 773 772 768 766 768 767 761 760 764 767 769 772 773 772 774 778 781 783 785 787 788 788 790 793 795 797 798 799 800 802 803 805 807 809 811 813 815 817 818 819
784 779 777 777 774 771 774 775 769 765 767 770 772 776 776 773 775 778 781 783 785 787 789 789 790 793 795 797 799 800 800 801 803 805 807 809 812 814 816 818 819 820
789 785 781 781 781 778 779 782 778 772 771 772 776 780 779 776 777 780 782 785 787 789 790 791 792 794 795 797 799 800 801 802 803 805 807 810 812 814 816 818 820 821
794 791 787 785 786 784 784 787 785 780 777 777 779 782 782 781 782 784 785 788 790 791 792 793 793 795 797 798 799 800 802 803 804 806 808 811 813 815 817 819 820 821
Wind_Speed
25 23 23 24 25 24 24 24 23 23 25 26 26 27 28 26 24 24 23 21 23 24 23 22 21 21 22 21 20 20 19 20 21 21 21 20 18 18 18 19 19 19
25 24 23 24 24 23 24 24 23 24 25 27 28 28 27 26 24 23 23 22 23 25 23 22 21 21 22 22 20 20 19 19 20 21 21 19 18 17 17 18 17 17
24 24 24 25 25 24 24 23 21 22 24 25 28 29 27 26 25 24 25 24 24 24 22 22 22 21 21 21 20 20 19 19 20 21 20 19 18 17 17 17 17 16
21 23 24 26 26 24 24 22 19 19 21 21 21 23 26 27 26 25 25 25 23 22 22 22 21 21 21 21 21 20 19 19 19 20 19 18 17 16 15 15 16 16
22 25 26 28 27 23 20 19 19 19 21 20 17 17 19 23 26 27 26 25 24 23 22 22 21 21 21 21 21 21 19 19 19 19 19 18 16 15 15 14 14 14
22 25 28 29 26 21 19 20 20 21 23 24 21 19 19 20 24 28 27 25 25 24 24 23 21 21 21 21 21 20 19 19 20 19 18 18 17 15 15 14 14 13
20 23 27 28 20 18 23 23 19 19 21 22 21 22 23 23 24 27 27 26 25 25 24 23 22 22 22 21 21 20 19 19 20 19 18 18 17 16 16 15 14 13
16 19 25 25 17 17 22 20 16 16 18 20 20 22 25 25 26 27 26 26 25 24 24 23 22 22 21 21 21 20 20 20 20 19 19 18 17 17 17 16 15 14
14 16 20 22 19 19 20 17 18 19 19 21 23 24 27 27 27 28 27 26 25 24 23 23 22 21 21 20 20 20 21 21 20 20 20 19 18 17 18 17 15 16
15 15 17 20 21 21 21 20 20 22 22 24 25 26 27 27 26 27 27 26 25 25 24 23 22 21 21 20 19 19 20 20 20 20 20 19 18 17 17 16 15 16
16 15 16 19 21 22 22 23 23 23 23 25 26 26 27 26 25 26 27 26 26 26 25 23 21 21 22 21 19 18 18 19 19 20 20 19 18 17 16 16 16 16
16 15 14 18 21 22 21 22 25 25 24 25 27 28 27 26 24 25 26 26 26 27 26 23 20 21 21 21 20 18 17 18 19 19 19 18 17 16 15 15 15 14
16 15 14 16 20 20 20 21 25 27 26 26 29 29 28 27 26 26 27 28 27 27 25 23 21 21 21 20 19 18 17 17 17 17 17 17 16 15 15 15 14 13
17 15 14 15 17 19 19 20 23 26 27 27 29 30 30 29 27 27 28 28 27 26 24 22 22 22 21 20 19 18 18 18 17 17 16 16 15 14 15 14 13 12
20 15 14 14 15 18 19 20 22 25 26 27 28 28 29 29 27 27 28 27 26 26 24 23 22 22 21 21 19 17 17 17 16 16 16 16 16 15 15 15 14 12
23 17 13 13 14 19 22 22 25 26 25 26 28 28 28 29 29 27 27 27 26 25 24 23 22 21 20 20 18 17 16 15 14 14 16 16 16 16 16 16 14 12
26 19 12 14 15 20 24 25 27 29 28 29 31 30 29 31 31 29 28 27 27 26 25 24 23 21 20 19 17 15 15 14 14 15 16 16 16 17 16 15 13 11
26 20 12 14 17 20 26 28 29 31 33 33 32 31 30 31 32 31 30 29 29 28 25 23 22 20 20 19 17 16 15 15 16 16 17 18 18 17 17 15 12 10
27 22 14 10 18 22 26 29 31 34 35 33 30 30 31 32 32 31 31 31 30 29 25 22 21 21 20 20 19 18 17 16 17 17 18 19 18 17 16 14 12 11
29 25 19 9 12 21 27 30 30 32 33 30 30 32 32 33 33 32 32 31 30 29 26 23 22 21 21 21 20 19 18 17 17 18 19 18 17 16 15 14 13 12
30 27 25 18 5 8 19 27 29 28 29 29 30 32 32 33 35 33 31 30 28 27 27 25 23 21 21 21 21 20 19 18 18 19 19 18 16 16 15 14 13 12
29 29 29 24 15 7 2 16 28 29 28 28 28 29 30 32 33 32 30 28 26 25 26 25 22 20 20 20 21 21 20 20 19 20 20 19 18 18 17 16 15 14
29 29 30 29 23 17 13 7 21 29 26 27 27 26 28 31 32 29 27 26 25 23 24 24 22 20 19 18 19 21 20 20 20 21 21 22 21 20 19 18 17 16
29 28 29 31 29 24 19 13 16 25 27 28 28 25 26 30 31 29 27 25 23 22 21 22 22 20 20 20 19 20 21 20 21 23 24 24 23 22 20 19 18 17
28 28 30 30 31 28 23 17 17 23 27 29 28 26 27 29 30 30 28 26 24 22 20 21 21 21 21 22 21 21 21 22 23 25 26 25 23 22 20 18 17 16
28 27 29 30 30 30 27 21 20 24 28 30 29 27 29 30 30 30 30 28 26 25 23 22 21 20 20 21 23 23 24 24 25 26 26 25 23 21 20 18 17 15
Wind_Direction
236 228 224 225 225 224 221 218 217 217 219 223 225 223 218 213 208 204 202 200 206 210 206 203 206 208 207 204 205 208 210 214 216 218 219 218 219 223 225 224 224 224
237 230 227 231 231 230 227 223 221 222 223 224 225 223 218 213 207 203 203 202 206 209 207 207 207 206 205 204 207 210 211 215 217 217 216 215 217 222 222 223 224 227
237 231 227 231 234 234 234 231 229 229 228 228 226 222 216 209 204 203 203 202 206 209 208 207 205 203 203 204 207 209 210 213 214 213 211 211 216 221 222 224 225 225
243 240 233 232 234 235 236 235 234 234 234 235 233 227 219 210 204 201 200 200 202 203 202 200 201 202 203 205 207 207 208 211 211 208 207 209 214 218 220 222 223 223
244 248 244 238 235 234 235 232 229 232 234 236 241 243 231 216 207 200 197 199 198 198 199 198 200 202 201 203 203 204 207 209 208 206 207 210 213 217 220 218 218 221
243 246 248 246 238 232 233 231 227 230 232 230 231 239 238 227 215 204 197 197 197 198 200 200 199 198 196 198 200 203 208 208 206 206 208 211 211 214 218 218 218 219
252 247 247 247 238 228 235 236 234 235 233 227 223 226 229 227 221 210 200 196 196 198 200 199 197 195 194 197 200 203 207 207 205 204 207 210 210 213 217 218 220 219
264 256 249 246 233 227 235 235 237 240 233 227 222 217 217 217 219 216 206 197 195 197 199 198 196 195 196 199 202 205 206 206 206 205 206 208 210 215 217 218 221 221
264 259 252 246 237 233 231 223 229 234 229 227 221 212 209 209 215 220 211 198 196 197 198 198 197 197 199 199 201 204 205 205 206 205 205 205 207 213 215 216 219 219
264 253 246 241 240 239 229 219 224 226 220 220 215 208 206 204 211 220 213 200 197 197 198 199 197 197 198 197 200 204 204 203 203 203 203 204 207 211 212 213 215 217
274 260 245 234 235 238 230 218 216 215 211 212 209 205 204 201 206 217 213 202 198 197 196 196 196 198 198 199 202 205 206 206 205 205 207 208 212 213 212 214 216 218
290 275 259 237 231 235 233 221 214 211 209 208 205 202 201 197 201 212 210 200 196 195 195 196 196 197 197 199 201 202 205 207 207 208 210 212 215 216 215 215 216 217
310 291 272 247 234 233 232 222 214 211 208 206 203 200 199 194 196 206 206 197 194 195 195 195 194 193 194 199 202 203 205 205 204 206 209 209 212 213 212 212 214 218
325 306 283 262 246 237 228 218 212 208 204 202 200 199 199 194 194 203 202 196 195 194 192 192 192 192 195 201 205 206 206 205 206 208 208 208 211 212 210 211 217 223
335 319 293 273 252 237 225 212 207 204 198 194 194 195 193 189 191 200 198 192 192 191 190 192 191 191 196 201 204 202 202 204 208 208 207 208 211 211 211 214 217 221
342 333 299 268 242 225 215 203 197 198 194 190 189 190 187 183 188 196 194 191 191 190 191 192 191 192 196 199 199 197 198 201 200 198 199 202 204 205 206 209 211 216
348 342 303 260 234 213 203 195 191 192 192 189 186 187 187 185 188 192 193 192 191 189 189 190 189 190 192 193 191 190 194 196 192 192 194 194 193 192 193 196 201 209
358 349 314 261 237 216 201 194 189 187 187 186 184 185 187 186 187 190 190 190 187 184 183 184 184 185 185 184 180 176 180 183 181 183 187 187 187 186 186 189 193 193
9 2 343 272 235 219 204 195 188 182 182 183 182 183 183 180 181 183 182 181 179 176 175 174 176 177 176 176 173 171 172 171 169 174 180 183 184 184 182 181 180 176
16 14 7 336 235 214 203 195 186 178 178 180 181 180 177 174 174 174 172 171 171 170 168 167 168 170 171 172 172 173 175 171 167 172 178 180 179 179 176 171 170 170
20 20 16 13 356 217 200 188 176 169 172 175 175 173 169 166 166 167 165 163 163 163 161 158 159 163 167 170 171 174 177 175 170 171 174 173 169 168 165 159 157 158
23 26 22 23 34 40 140 163 157 157 161 162 160 159 157 154 154 156 156 154 154 156 154 149 148 153 160 167 172 176 176 172 168 166 165 161 155 152 150 144 142 143
24 34 31 27 40 48 32 81 135 142 147 149 146 143 142 141 141 141 143 144 145 147 147 142 140 144 151 160 171 179 178 169 163 160 155 149 143 140 140 137 134 135
25 40 43 35 37 48 42 41 99 122 130 135 134 129 125 127 129 127 127 130 132 134 138 139 137 139 146 152 161 173 177 170 162 155 147 141 137 134 134 133 129 128
27 40 52 47 39 44 50 49 73 101 115 120 120 115 111 112 116 116 114 113 116 119 126 133 135 137 145 149 151 159 164 164 161 154 143 136 135 133 130 129 127 124
31 37 52 58 51 47 49 53 67 88 101 106 106 103 102 102 104 105 104 102 104 106 110 117 124 131 141 148 149 149 151 153 153 149 141 136 133 131 129 126 125 123